^^
Datos históricos de la estación: Murcia-Puente Tocinos
Diario Informe para Junio 25, 2019 Unidades:  Métrico    Inglés   Ambas
Diario Semanal Mensual Anual Configurable
  Máximo: Mínimo: Media:
Temperatura: 31.2 °C 21.4 °C 25.4 °C
Punto de rocio: 20.1 °C 16.9 °C 18.7 °C
Humedad: 87% 48% 68%
Velocidad viento: 19.0km/h 0.0km/h 8.7km/h
Racha viento: 37.0km/h - -
Viento- - East
Presión: 1015.5 hPa 1012.4 hPa -
Precipitación: 0.0 mm    
Historical Graphs
 
 
Tabla de datos para Junio 25, 2019
Hora Temperatura Punto de rocio Presión Viento Velocidad viento Racha viento Humedad Intensidad lluvia(por hora) Nubes
00:04 23.3 °C 18.6 °C 1013.4 hPa NNE 8.7 km/h 11.1 km/h 75% 0.0 mm CLR
00:09 23.2 °C 18.7 °C 1013.4 hPa NE 9.5 km/h 13.0 km/h 76% 0.0 mm CLR
00:14 23.0 °C 18.9 °C 1013.4 hPa ENE 9.5 km/h 11.1 km/h 78% 0.0 mm CLR
00:19 22.9 °C 18.8 °C 1013.4 hPa ENE 10.3 km/h 11.1 km/h 78% 0.0 mm CLR
00:24 22.8 °C 18.9 °C 1013.4 hPa NNE 10.3 km/h 13.0 km/h 79% 0.0 mm CLR
00:29 22.8 °C 19.2 °C 1013.4 hPa NNE 10.0 km/h 14.8 km/h 80% 0.0 mm CLR
00:34 22.7 °C 19.1 °C 1013.3 hPa NNE 10.0 km/h 14.8 km/h 80% 0.0 mm CLR
00:39 22.6 °C 19.2 °C 1013.3 hPa ENE 8.7 km/h 13.0 km/h 81% 0.0 mm CLR
00:44 22.6 °C 19.2 °C 1013.3 hPa NE 8.7 km/h 11.1 km/h 81% 0.0 mm CLR
00:49 22.5 °C 19.3 °C 1013.3 hPa North 8.4 km/h 11.1 km/h 82% 0.0 mm CLR
00:54 22.4 °C 19.2 °C 1013.3 hPa NNE 8.4 km/h 15.6 km/h 82% 0.0 mm CLR
00:59 22.3 °C 19.3 °C 1013.3 hPa North 10.0 km/h 13.0 km/h 83% 0.0 mm CLR
01:04 22.2 °C 19.2 °C 1013.3 hPa NNE 10.0 km/h 13.0 km/h 83% 0.0 mm CLR
01:09 22.2 °C 19.4 °C 1013.3 hPa East 9.5 km/h 13.0 km/h 84% 0.0 mm CLR
01:14 22.2 °C 19.4 °C 1013.3 hPa NNE 9.5 km/h 11.1 km/h 84% 0.0 mm CLR
01:19 22.1 °C 19.3 °C 1013.3 hPa NNE 8.7 km/h 14.8 km/h 84% 0.0 mm CLR
01:24 22.1 °C 19.3 °C 1013.3 hPa ENE 8.7 km/h 13.0 km/h 84% 0.0 mm CLR
01:29 22.1 °C 19.3 °C 1013.3 hPa NNE 9.5 km/h 13.0 km/h 84% 0.0 mm CLR
01:34 22.1 °C 19.3 °C 1013.2 hPa NE 9.5 km/h 11.1 km/h 84% 0.0 mm CLR
01:39 22.0 °C 19.3 °C 1013.2 hPa NE 8.4 km/h 14.8 km/h 85% 0.0 mm CLR
01:44 22.0 °C 19.3 °C 1013.2 hPa NE 8.4 km/h 9.3 km/h 85% 0.0 mm CLR
01:49 21.9 °C 19.3 °C 1013.2 hPa NE 8.7 km/h 10.0 km/h 85% 0.0 mm CLR
01:54 21.9 °C 19.3 °C 1013.2 hPa NNE 8.7 km/h 11.1 km/h 85% 0.0 mm CLR
01:59 21.9 °C 19.3 °C 1013.2 hPa ENE 8.4 km/h 11.9 km/h 85% 0.0 mm CLR
02:04 21.9 °C 19.4 °C 1013.0 hPa NE 8.4 km/h 10.0 km/h 86% 0.0 mm CLR
02:09 21.9 °C 19.4 °C 1013.0 hPa ENE 8.4 km/h 13.0 km/h 86% 0.0 mm CLR
02:14 21.9 °C 19.4 °C 1013.0 hPa NE 8.4 km/h 9.3 km/h 86% 0.0 mm CLR
02:19 21.8 °C 19.3 °C 1012.7 hPa NE 8.4 km/h 11.1 km/h 86% 0.0 mm CLR
02:24 21.8 °C 19.3 °C 1012.7 hPa ENE 8.4 km/h 11.1 km/h 86% 0.0 mm CLR
02:29 21.7 °C 19.3 °C 1012.7 hPa NE 8.4 km/h 13.0 km/h 86% 0.0 mm CLR
02:34 21.7 °C 19.3 °C 1012.7 hPa NE 8.4 km/h 9.3 km/h 86% 0.0 mm CLR
02:39 21.6 °C 19.2 °C 1012.7 hPa NNE 6.9 km/h 9.3 km/h 86% 0.0 mm CLR
02:44 21.5 °C 19.1 °C 1012.7 hPa NE 6.9 km/h 7.4 km/h 86% 0.0 mm CLR
02:49 21.5 °C 19.2 °C 1012.8 hPa NNE 4.7 km/h   87% 0.0 mm CLR
02:54 21.6 °C 19.3 °C 1012.8 hPa NNE 4.7 km/h 4.7 km/h 87% 0.0 mm CLR
02:59 21.6 °C 19.3 °C 1012.8 hPa NNE 2.9 km/h   87% 0.0 mm CLR
03:04 21.6 °C 19.3 °C 1012.7 hPa NNE 2.9 km/h   87% 0.0 mm CLR
03:09 21.6 °C 19.3 °C 1012.7 hPa Calm   5.0 km/h 87% 0.0 mm CLR
03:14 21.6 °C 19.2 °C 1012.7 hPa Calm     86% 0.0 mm CLR
03:19 21.7 °C 19.3 °C 1012.8 hPa NE 2.3 km/h 7.4 km/h 86% 0.0 mm CLR
03:24 21.7 °C 19.3 °C 1012.8 hPa NE 2.3 km/h   86% 0.0 mm CLR
03:29 21.7 °C 19.3 °C 1012.8 hPa Calm   2.9 km/h 86% 0.0 mm CLR
03:34 21.7 °C 19.3 °C 1012.8 hPa Calm   4.7 km/h 86% 0.0 mm CLR
03:39 21.7 °C 19.3 °C 1012.8 hPa NW 2.3 km/h 5.6 km/h 86% 0.0 mm CLR
03:44 21.7 °C 19.3 °C 1012.8 hPa NW 2.3 km/h   86% 0.0 mm CLR
03:49 21.7 °C 19.3 °C 1012.8 hPa Calm     86% 0.0 mm CLR
03:54 21.7 °C 19.3 °C 1012.8 hPa Calm     86% 0.0 mm CLR
03:59 21.7 °C 19.3 °C 1012.8 hPa Calm   3.2 km/h 86% 0.0 mm CLR
04:04 21.8 °C 19.3 °C 1012.7 hPa Calm   3.2 km/h 86% 0.0 mm CLR
04:09 21.8 °C 19.2 °C 1012.7 hPa Calm     85% 0.0 mm CLR
04:14 21.8 °C 19.2 °C 1012.7 hPa Calm     85% 0.0 mm CLR
04:19 21.8 °C 19.2 °C 1012.7 hPa Calm     85% 0.0 mm CLR
04:24 21.8 °C 19.2 °C 1012.7 hPa Calm     85% 0.0 mm CLR
04:29 21.8 °C 19.2 °C 1012.7 hPa Calm     85% 0.0 mm CLR
04:34 21.8 °C 19.2 °C 1012.6 hPa Calm   5.6 km/h 85% 0.0 mm CLR
04:39 21.7 °C 18.9 °C 1012.6 hPa Calm   5.6 km/h 84% 0.0 mm CLR
04:44 21.7 °C 18.7 °C 1012.6 hPa Calm   7.4 km/h 83% 0.0 mm CLR
04:49 21.6 °C 18.4 °C 1012.5 hPa SE 5.0 km/h 9.3 km/h 82% 0.0 mm CLR
04:54 21.4 °C 18.0 °C 1012.5 hPa SE 5.0 km/h 7.4 km/h 81% 0.0 mm CLR
04:59 21.4 °C 18.0 °C 1012.5 hPa South 4.7 km/h 5.6 km/h 81% 0.0 mm CLR
05:04 21.4 °C 17.8 °C 1012.4 hPa SSE 4.7 km/h 7.4 km/h 80% 0.0 mm CLR
05:09 21.4 °C 17.6 °C 1012.4 hPa SSW 4.7 km/h 7.4 km/h 79% 0.0 mm CLR
05:14 21.4 °C 17.6 °C 1012.4 hPa SSE 4.7 km/h 7.4 km/h 79% 0.0 mm CLR
05:19 21.4 °C 17.4 °C 1012.4 hPa SSE 4.7 km/h 7.4 km/h 78% 0.0 mm CLR
05:24 21.5 °C 17.5 °C 1012.4 hPa SSE 4.7 km/h 9.3 km/h 78% 0.0 mm CLR
05:29 21.6 °C 17.6 °C 1012.4 hPa SSE 6.4 km/h 9.3 km/h 78% 0.0 mm CLR
05:34 21.6 °C 17.6 °C 1012.4 hPa SSE 6.4 km/h 9.3 km/h 78% 0.0 mm CLR
05:39 21.7 °C 17.7 °C 1012.4 hPa SSE 5.8 km/h 7.4 km/h 78% 0.0 mm CLR
05:44 21.7 °C 17.5 °C 1012.4 hPa South 5.8 km/h 7.4 km/h 77% 0.0 mm CLR
05:49 21.7 °C 17.5 °C 1012.4 hPa South 5.0 km/h 7.4 km/h 77% 0.0 mm CLR
05:54 21.7 °C 17.5 °C 1012.4 hPa South 5.0 km/h 6.4 km/h 77% 0.0 mm CLR
05:59 21.7 °C 17.5 °C 1012.4 hPa South 3.9 km/h 3.2 km/h 77% 0.0 mm CLR
06:04 21.7 °C 17.9 °C 1012.5 hPa SW 3.9 km/h 11.1 km/h 79% 0.0 mm CLR
06:09 21.7 °C 17.9 °C 1012.5 hPa SSW 4.7 km/h 7.4 km/h 79% 0.0 mm CLR
06:14 21.7 °C 18.1 °C 1012.5 hPa SW 4.7 km/h 9.3 km/h 80% 0.0 mm CLR
06:19 21.7 °C 17.9 °C 1012.8 hPa SSW 6.4 km/h 13.0 km/h 79% 0.0 mm CLR
06:24 21.7 °C 17.9 °C 1012.8 hPa SW 6.4 km/h 9.3 km/h 79% 0.0 mm CLR
06:29 21.7 °C 17.9 °C 1012.8 hPa SW 6.9 km/h 7.4 km/h 79% 0.0 mm CLR
06:34 21.7 °C 17.7 °C 1013.0 hPa SW 6.9 km/h 11.1 km/h 78% 0.0 mm CLR
06:39 21.7 °C 17.7 °C 1013.0 hPa WSW 5.8 km/h 8.4 km/h 78% 0.0 mm CLR
06:44 21.7 °C 17.7 °C 1013.0 hPa WSW 5.8 km/h 7.4 km/h 78% 0.0 mm CLR
06:49 21.7 °C 17.7 °C 1013.3 hPa West 5.0 km/h 9.3 km/h 78% 0.0 mm CLR
06:54 21.7 °C 17.7 °C 1013.3 hPa SSW 5.0 km/h 3.2 km/h 78% 0.0 mm CLR
06:59 21.7 °C 17.5 °C 1013.3 hPa South 3.2 km/h 7.4 km/h 77% 0.0 mm CLR
07:04 21.6 °C 17.4 °C 1013.4 hPa SSE 3.2 km/h 5.6 km/h 77% 0.0 mm CLR
07:09 21.6 °C 17.2 °C 1013.4 hPa SE 3.9 km/h 5.6 km/h 76% 0.0 mm CLR
07:14 21.5 °C 17.1 °C 1013.4 hPa SE 3.9 km/h   76% 0.0 mm CLR
07:19 21.5 °C 17.1 °C 1013.4 hPa Calm     76% 0.0 mm CLR
07:24 21.6 °C 17.4 °C 1013.4 hPa Calm     77% 0.0 mm CLR
07:29 21.7 °C 17.3 °C 1013.4 hPa Calm     76% 0.0 mm CLR
07:34 21.7 °C 17.1 °C 1013.6 hPa Calm   5.8 km/h 75% 0.0 mm CLR
07:39 21.7 °C 17.1 °C 1013.6 hPa ENE 2.9 km/h 4.7 km/h 75% 0.0 mm CLR
07:44 21.7 °C 16.9 °C 1013.6 hPa East 2.9 km/h 1.9 km/h 74% 0.0 mm CLR
07:49 21.8 °C 17.2 °C 1013.8 hPa NE 2.3 km/h   75% 0.0 mm CLR
07:54 22.1 °C 17.2 °C 1013.8 hPa East 2.3 km/h 5.0 km/h 74% 0.0 mm CLR
07:59 22.2 °C 17.3 °C 1013.8 hPa NNE 2.3 km/h 7.4 km/h 74% 0.0 mm CLR
08:04 22.4 °C 17.3 °C 1013.9 hPa NE 2.3 km/h 7.4 km/h 73% 0.0 mm CLR
08:09 22.3 °C 17.2 °C 1013.9 hPa NE 5.0 km/h 7.4 km/h 73% 0.0 mm CLR
08:14 22.3 °C 17.4 °C 1013.9 hPa NE 5.0 km/h 10.0 km/h 74% 0.0 mm CLR
08:19 22.5 °C 17.6 °C 1014.0 hPa NNE 5.0 km/h 5.6 km/h 74% 0.0 mm CLR
08:24 22.7 °C 17.6 °C 1014.0 hPa NNW 5.0 km/h 5.6 km/h 73% 0.0 mm CLR
08:29 22.9 °C 17.6 °C 1014.0 hPa ENE 4.7 km/h 9.3 km/h 72% 0.0 mm CLR
08:34 22.8 °C 17.3 °C 1014.2 hPa North 4.7 km/h 9.3 km/h 71% 0.0 mm CLR
08:39 22.9 °C 17.1 °C 1014.2 hPa NNE 5.8 km/h 9.3 km/h 70% 0.0 mm CLR
08:44 23.0 °C 17.4 °C 1014.2 hPa NNW 5.8 km/h 9.3 km/h 71% 0.0 mm CLR
08:49 23.1 °C 17.6 °C 1014.4 hPa NNW 5.8 km/h 7.4 km/h 71% 0.0 mm CLR
08:54 23.3 °C 17.5 °C 1014.4 hPa North 5.8 km/h 7.4 km/h 70% 0.0 mm CLR
08:59 23.5 °C 17.7 °C 1014.4 hPa NNW 3.2 km/h 7.4 km/h 70% 0.0 mm CLR
09:04 23.7 °C 17.7 °C 1014.3 hPa East 3.2 km/h 9.3 km/h 69% 0.0 mm CLR
09:09 23.9 °C 17.9 °C 1014.3 hPa NNW 4.7 km/h 7.4 km/h 69% 0.0 mm CLR
09:14 24.2 °C 17.9 °C 1014.3 hPa NNE 4.7 km/h 10.3 km/h 68% 0.0 mm CLR
09:19 24.2 °C 18.2 °C 1014.4 hPa NE 5.0 km/h 9.3 km/h 69% 0.0 mm CLR
09:24 24.2 °C 17.7 °C 1014.4 hPa NNE 5.0 km/h 11.1 km/h 67% 0.0 mm CLR
09:29 24.4 °C 17.9 °C 1014.4 hPa NE 6.4 km/h 7.4 km/h 67% 0.0 mm CLR
09:34 24.4 °C 17.9 °C 1014.4 hPa NNE 6.4 km/h 9.5 km/h 67% 0.0 mm CLR
09:39 24.6 °C 18.1 °C 1014.4 hPa NNE 5.0 km/h   67% 0.0 mm CLR
09:44 24.8 °C 17.8 °C 1014.4 hPa North 5.0 km/h 8.4 km/h 65% 0.0 mm CLR
09:49 24.9 °C 17.9 °C 1014.4 hPa NNW 3.2 km/h 9.3 km/h 65% 0.0 mm CLR
09:54 25.1 °C 18.3 °C 1014.4 hPa East 3.2 km/h 8.4 km/h 66% 0.0 mm CLR
09:59 25.4 °C 18.1 °C 1014.4 hPa East 5.8 km/h 11.9 km/h 64% 0.0 mm CLR
10:04 25.4 °C 18.3 °C 1014.3 hPa ESE 5.8 km/h 7.4 km/h 65% 0.0 mm CLR
10:09 25.6 °C 18.3 °C 1014.3 hPa East 6.4 km/h 11.1 km/h 64% 0.0 mm CLR
10:14 25.7 °C 18.4 °C 1014.3 hPa ENE 6.4 km/h 14.8 km/h 64% 0.0 mm CLR
10:19 25.7 °C 18.1 °C 1014.2 hPa ESE 6.4 km/h 14.8 km/h 63% 0.0 mm CLR
10:24 25.6 °C 18.1 °C 1014.2 hPa ENE 6.4 km/h 11.1 km/h 63% 0.0 mm CLR
10:29 25.7 °C 18.1 °C 1014.2 hPa SSW 6.4 km/h 7.6 km/h 63% 0.0 mm CLR
10:34 25.8 °C 17.9 °C 1014.2 hPa SW 6.4 km/h 5.6 km/h 62% 0.0 mm CLR
10:39 25.9 °C 17.8 °C 1014.2 hPa SW 4.7 km/h 3.7 km/h 61% 0.0 mm CLR
10:44 26.1 °C 18.0 °C 1014.2 hPa NW 4.7 km/h 7.4 km/h 61% 0.0 mm CLR
10:49 26.2 °C 18.1 °C 1014.2 hPa East 3.9 km/h 9.3 km/h 61% 0.0 mm CLR
10:54 26.3 °C 18.2 °C 1014.2 hPa ENE 3.9 km/h 8.4 km/h 61% 0.0 mm CLR
10:59 26.4 °C 18.3 °C 1014.2 hPa NNE 5.0 km/h 9.3 km/h 61% 0.0 mm CLR
11:04 26.6 °C 17.9 °C 1014.2 hPa East 5.0 km/h 11.1 km/h 59% 0.0 mm CLR
11:09 26.7 °C 18.0 °C 1014.2 hPa ESE 6.4 km/h 10.0 km/h 59% 0.0 mm CLR
11:14 26.7 °C 18.0 °C 1014.2 hPa NE 6.4 km/h 9.3 km/h 59% 0.0 mm CLR
11:19 26.9 °C 17.9 °C 1014.1 hPa SE 5.8 km/h 11.1 km/h 58% 0.0 mm CLR
11:24 27.1 °C 17.8 °C 1014.1 hPa NE 5.8 km/h 9.3 km/h 57% 0.0 mm CLR
11:29 27.2 °C 17.9 °C 1014.1 hPa NE 6.4 km/h 9.5 km/h 57% 0.0 mm CLR
11:34 27.1 °C 17.8 °C 1014.1 hPa SSW 6.4 km/h 5.6 km/h 57% 0.0 mm CLR
11:39 27.2 °C 17.7 °C 1014.1 hPa ESE 5.0 km/h 10.0 km/h 56% 0.0 mm CLR
11:44 27.5 °C 17.9 °C 1014.1 hPa NNW 5.0 km/h 11.1 km/h 56% 0.0 mm CLR
11:49 27.6 °C 18.1 °C 1014.0 hPa NNE 5.8 km/h 7.4 km/h 56% 0.0 mm CLR
11:54 27.8 °C 17.9 °C 1014.0 hPa NE 5.8 km/h 7.4 km/h 55% 0.0 mm CLR
11:59 28.1 °C 18.2 °C 1014.0 hPa NE 4.7 km/h 10.0 km/h 55% 0.0 mm CLR
12:04 28.1 °C 17.9 °C 1013.8 hPa North 4.7 km/h 7.4 km/h 54% 0.0 mm CLR
12:09 28.2 °C 18.0 °C 1013.8 hPa NW 5.8 km/h 7.4 km/h 54% 0.0 mm CLR
12:14 28.4 °C 17.9 °C 1013.8 hPa NE 5.8 km/h 11.1 km/h 53% 0.0 mm CLR
12:19 28.2 °C 17.7 °C 1013.8 hPa NNW 6.4 km/h 5.6 km/h 53% 0.0 mm CLR
12:24 28.2 °C 18.0 °C 1013.8 hPa NNE 6.4 km/h 11.1 km/h 54% 0.0 mm CLR
12:29 28.3 °C 17.8 °C 1013.8 hPa NE 4.7 km/h 4.7 km/h 53% 0.0 mm CLR
12:34 28.6 °C 17.8 °C 1013.7 hPa SSW 4.7 km/h 8.7 km/h 52% 0.0 mm CLR
12:39 28.6 °C 18.1 °C 1013.7 hPa NW 4.7 km/h 7.4 km/h 53% 0.0 mm CLR
12:44 28.8 °C 17.9 °C 1013.7 hPa NE 4.7 km/h 9.3 km/h 52% 0.0 mm CLR
12:49 28.8 °C 18.3 °C 1013.7 hPa ENE 6.4 km/h 7.4 km/h 53% 0.0 mm CLR
12:54 29.1 °C 18.2 °C 1013.7 hPa East 6.4 km/h 3.7 km/h 52% 0.0 mm CLR
12:59 29.4 °C 18.2 °C 1013.7 hPa NW 3.9 km/h 5.6 km/h 51% 0.0 mm CLR
13:04 29.8 °C 18.3 °C 1013.4 hPa NE 3.9 km/h 11.1 km/h 50% 0.0 mm CLR
13:09 30.1 °C 18.6 °C 1013.4 hPa NE 4.7 km/h 11.1 km/h 50% 0.0 mm CLR
13:14 29.8 °C 18.3 °C 1013.4 hPa ENE 4.7 km/h 13.0 km/h 50% 0.0 mm CLR
13:19 29.7 °C 18.5 °C 1013.4 hPa ENE 6.9 km/h 14.0 km/h 51% 0.0 mm CLR
13:24 29.7 °C 18.5 °C 1013.4 hPa NE 6.9 km/h 22.2 km/h 51% 0.0 mm CLR
13:29 29.7 °C 18.5 °C 1013.4 hPa NE 8.7 km/h 11.1 km/h 51% 0.0 mm CLR
13:34 30.0 °C 18.8 °C 1013.3 hPa ENE 8.7 km/h 13.7 km/h 51% 0.0 mm CLR
13:39 30.1 °C 18.6 °C 1013.3 hPa ENE 8.4 km/h 14.8 km/h 50% 0.0 mm CLR
13:44 30.2 °C 18.6 °C 1013.3 hPa ENE 8.4 km/h 14.8 km/h 50% 0.0 mm CLR
13:49 30.2 °C 18.6 °C 1013.2 hPa ENE 7.6 km/h 5.6 km/h 50% 0.0 mm CLR
13:54 30.4 °C 18.8 °C 1013.2 hPa NNW 7.6 km/h 13.0 km/h 50% 0.0 mm CLR
13:59 30.7 °C 18.8 °C 1013.2 hPa NNE 6.9 km/h 14.8 km/h 49% 0.0 mm CLR
14:04 30.8 °C 18.5 °C 1013.0 hPa ENE 6.9 km/h 7.4 km/h 48% 0.0 mm CLR
14:09 31.0 °C 19.1 °C 1013.0 hPa East 5.8 km/h 14.8 km/h 49% 0.0 mm CLR
14:14 31.1 °C 19.1 °C 1013.0 hPa East 5.8 km/h 16.7 km/h 49% 0.0 mm CLR
14:19 31.1 °C 19.1 °C 1012.9 hPa NNE 8.4 km/h 14.8 km/h 49% 0.0 mm CLR
14:24 31.2 °C 19.9 °C 1012.9 hPa North 8.4 km/h 13.0 km/h 51% 0.0 mm CLR
14:29 30.8 °C 20.1 °C 1012.9 hPa ESE 12.2 km/h 29.6 km/h 53% 0.0 mm CLR
14:34 30.6 °C 19.9 °C 1013.0 hPa ESE 12.2 km/h 27.0 km/h 53% 0.0 mm CLR
14:39 30.3 °C 19.9 °C 1013.0 hPa ESE 17.2 km/h 25.9 km/h 54% 0.0 mm CLR
14:44 30.3 °C 19.9 °C 1013.0 hPa East 17.2 km/h 27.8 km/h 54% 0.0 mm CLR
14:49 30.2 °C 19.9 °C 1012.9 hPa SE 16.4 km/h 22.5 km/h 54% 0.0 mm CLR
14:54 30.3 °C 19.9 °C 1012.9 hPa East 16.4 km/h 20.4 km/h 54% 0.0 mm CLR
14:59 30.3 °C 19.9 °C 1012.9 hPa ESE 16.1 km/h 22.2 km/h 54% 0.0 mm CLR
15:04 30.2 °C 19.9 °C 1013.0 hPa East 16.1 km/h 25.9 km/h 54% 0.0 mm CLR
15:09 30.1 °C 20.1 °C 1013.0 hPa East 18.3 km/h 25.9 km/h 55% 0.0 mm CLR
15:14 30.2 °C 19.9 °C 1013.0 hPa ESE 18.3 km/h 27.8 km/h 54% 0.0 mm CLR
15:19 30.3 °C 19.9 °C 1012.8 hPa SE 16.4 km/h 22.0 km/h 54% 0.0 mm CLR
15:24 30.3 °C 19.7 °C 1012.8 hPa ESE 16.4 km/h 25.9 km/h 53% 0.0 mm CLR
15:29 30.3 °C 19.9 °C 1012.8 hPa SE 16.1 km/h 25.9 km/h 54% 0.0 mm CLR
15:34 30.2 °C 19.6 °C 1012.9 hPa ESE 16.1 km/h 25.9 km/h 53% 0.0 mm CLR
15:39 30.0 °C 19.7 °C 1012.9 hPa ESE 18.3 km/h 25.9 km/h 54% 0.0 mm CLR
15:44 30.0 °C 19.7 °C 1012.9 hPa ESE 18.3 km/h 25.9 km/h 54% 0.0 mm CLR
15:49 29.9 °C 19.6 °C 1012.9 hPa SE 19.0 km/h 29.6 km/h 54% 0.0 mm CLR
15:54 29.9 °C 19.3 °C 1012.9 hPa SSE 19.0 km/h 24.1 km/h 53% 0.0 mm CLR
15:59 30.1 °C 19.8 °C 1012.9 hPa SE 16.4 km/h 20.4 km/h 54% 0.0 mm CLR
16:04 30.3 °C 19.7 °C 1012.9 hPa SE 16.4 km/h 20.4 km/h 53% 0.0 mm CLR
16:09 30.3 °C 19.7 °C 1012.9 hPa ESE 13.7 km/h 16.7 km/h 53% 0.0 mm CLR
16:14 30.3 °C 19.7 °C 1012.9 hPa ESE 13.7 km/h 22.2 km/h 53% 0.0 mm CLR
16:19 29.9 °C 19.6 °C 1012.9 hPa East 13.0 km/h 18.5 km/h 54% 0.0 mm CLR
16:24 30.2 °C 19.9 °C 1012.9 hPa ENE 13.0 km/h 24.1 km/h 54% 0.0 mm CLR
16:29 30.2 °C 19.9 °C 1012.9 hPa NE 11.9 km/h 22.2 km/h 54% 0.0 mm CLR
16:34 30.3 °C 19.9 °C 1012.8 hPa North 11.9 km/h 18.5 km/h 54% 0.0 mm CLR
16:39 30.2 °C 19.9 °C 1012.8 hPa NE 11.1 km/h 16.7 km/h 54% 0.0 mm CLR
16:44 30.2 °C 19.9 °C 1012.8 hPa ENE 11.1 km/h 20.4 km/h 54% 0.0 mm CLR
16:49 29.8 °C 19.8 °C 1012.8 hPa NE 12.2 km/h 14.8 km/h 55% 0.0 mm CLR
16:54 29.8 °C 20.1 °C 1012.8 hPa NE 12.2 km/h 25.9 km/h 56% 0.0 mm CLR
16:59 29.7 °C 20.0 °C 1012.8 hPa ENE 14.8 km/h 20.4 km/h 56% 0.0 mm CLR
17:04 29.8 °C 20.1 °C 1012.6 hPa NE 14.8 km/h 24.1 km/h 56% 0.0 mm CLR
17:09 29.8 °C 19.8 °C 1012.6 hPa NE 14.0 km/h 22.2 km/h 55% 0.0 mm CLR
17:14 29.9 °C 19.6 °C 1012.6 hPa ENE 14.0 km/h 27.8 km/h 54% 0.0 mm CLR
17:19 29.5 °C 19.5 °C 1012.5 hPa East 17.2 km/h 25.9 km/h 55% 0.0 mm CLR
17:24 29.4 °C 19.4 °C 1012.5 hPa NE 17.2 km/h 25.9 km/h 55% 0.0 mm CLR
17:29 29.2 °C 19.2 °C 1012.5 hPa East 18.3 km/h 25.9 km/h 55% 0.0 mm CLR
17:34 29.3 °C 19.3 °C 1012.5 hPa NE 18.3 km/h 24.1 km/h 55% 0.0 mm CLR
17:39 29.3 °C 19.1 °C 1012.5 hPa NNE 16.4 km/h 28.2 km/h 54% 0.0 mm CLR
17:44 29.1 °C 18.8 °C 1012.5 hPa NE 16.4 km/h 19.8 km/h 54% 0.0 mm CLR
17:49 29.1 °C 18.8 °C 1012.6 hPa NNE 18.0 km/h 27.8 km/h 54% 0.0 mm CLR
17:54 28.7 °C 18.5 °C 1012.6 hPa NE 18.0 km/h 37.0 km/h 54% 0.0 mm CLR
17:59 28.8 °C 18.8 °C 1012.6 hPa NNE 19.0 km/h 22.2 km/h 55% 0.0 mm CLR
18:04 28.9 °C 18.7 °C 1012.5 hPa ENE 19.0 km/h 27.0 km/h 54% 0.0 mm CLR
18:09 28.8 °C 18.6 °C 1012.5 hPa NE 16.4 km/h 22.2 km/h 54% 0.0 mm CLR
18:14 28.7 °C 18.5 °C 1012.5 hPa NE 16.4 km/h 25.9 km/h 54% 0.0 mm CLR
18:19 28.4 °C 18.5 °C 1012.5 hPa NE 19.0 km/h 29.1 km/h 55% 0.0 mm CLR
18:24 28.5 °C 18.9 °C 1012.5 hPa NE 19.0 km/h 22.2 km/h 56% 0.0 mm CLR
18:29 28.5 °C 18.6 °C 1012.5 hPa East 16.4 km/h 25.9 km/h 55% 0.0 mm CLR
18:34 28.5 °C 18.9 °C 1012.4 hPa North 16.4 km/h 20.4 km/h 56% 0.0 mm CLR
18:39 28.4 °C 18.5 °C 1012.4 hPa NE 15.6 km/h 25.9 km/h 55% 0.0 mm CLR
18:44 28.1 °C 18.5 °C 1012.4 hPa NE 15.6 km/h 27.8 km/h 56% 0.0 mm CLR
18:49 28.0 °C 18.4 °C 1012.4 hPa East 17.2 km/h 24.1 km/h 56% 0.0 mm CLR
18:54 28.0 °C 18.7 °C 1012.4 hPa ENE 17.2 km/h 28.2 km/h 57% 0.0 mm CLR
18:59 27.9 °C 18.6 °C 1012.4 hPa NE 16.4 km/h 31.5 km/h 57% 0.0 mm CLR
19:04 27.7 °C 18.7 °C 1012.4 hPa NE 16.4 km/h 22.2 km/h 58% 0.0 mm CLR
19:09 27.7 °C 18.7 °C 1012.4 hPa NE 18.0 km/h 27.8 km/h 58% 0.0 mm CLR
19:14 27.7 °C 18.7 °C 1012.4 hPa ENE 18.0 km/h 24.1 km/h 58% 0.0 mm CLR
19:19 27.7 °C 18.7 °C 1012.4 hPa NNE 15.6 km/h 20.4 km/h 58% 0.0 mm CLR
19:24 27.5 °C 18.8 °C 1012.4 hPa ENE 15.6 km/h 22.2 km/h 59% 0.0 mm CLR
19:29 27.5 °C 18.8 °C 1012.4 hPa NNE 16.1 km/h 24.1 km/h 59% 0.0 mm CLR
19:34 27.3 °C 18.6 °C 1012.7 hPa NE 16.1 km/h 22.2 km/h 59% 0.0 mm CLR
19:39 27.3 °C 18.8 °C 1012.7 hPa NE 16.4 km/h 18.5 km/h 60% 0.0 mm CLR
19:44 27.3 °C 18.6 °C 1012.7 hPa NE 16.4 km/h 21.7 km/h 59% 0.0 mm CLR
19:49 27.1 °C 18.7 °C 1012.8 hPa NE 16.4 km/h 27.8 km/h 60% 0.0 mm CLR
19:54 27.1 °C 18.7 °C 1012.8 hPa NE 16.4 km/h 18.5 km/h 60% 0.0 mm CLR
19:59 27.1 °C 18.7 °C 1012.8 hPa ENE 16.1 km/h 22.2 km/h 60% 0.0 mm CLR
20:04 27.1 °C 18.9 °C 1012.6 hPa ENE 16.1 km/h 18.5 km/h 61% 0.0 mm CLR
20:09 27.0 °C 18.8 °C 1012.6 hPa NE 13.7 km/h 24.1 km/h 61% 0.0 mm CLR
20:14 26.9 °C 19.0 °C 1012.6 hPa NE 13.7 km/h 22.2 km/h 62% 0.0 mm CLR
20:19 26.9 °C 19.0 °C 1012.7 hPa ENE 13.7 km/h 14.8 km/h 62% 0.0 mm CLR
20:24 26.8 °C 19.2 °C 1012.7 hPa NE 13.7 km/h 25.9 km/h 63% 0.0 mm CLR
20:29 26.4 °C 19.1 °C 1012.7 hPa NE 16.1 km/h 22.2 km/h 64% 0.0 mm CLR
20:34 26.3 °C 19.2 °C 1012.9 hPa NE 16.1 km/h 14.8 km/h 65% 0.0 mm CLR
20:39 26.3 °C 19.2 °C 1012.9 hPa NE 15.6 km/h 24.1 km/h 65% 0.0 mm CLR
20:44 26.0 °C 19.2 °C 1012.9 hPa ENE 15.6 km/h 18.5 km/h 66% 0.0 mm CLR
20:49 25.8 °C 19.2 °C 1013.3 hPa NE 16.1 km/h 25.9 km/h 67% 0.0 mm CLR
20:54 25.7 °C 19.1 °C 1013.3 hPa NE 16.1 km/h 22.2 km/h 67% 0.0 mm CLR
20:59 25.7 °C 19.3 °C 1013.3 hPa North 13.0 km/h 14.8 km/h 68% 0.0 mm CLR
21:04 25.7 °C 19.3 °C 1013.4 hPa NE 13.0 km/h 16.7 km/h 68% 0.0 mm CLR
21:09 25.5 °C 19.2 °C 1013.4 hPa East 12.2 km/h 20.1 km/h 68% 0.0 mm CLR
21:14 25.3 °C 18.9 °C 1013.4 hPa East 12.2 km/h 14.8 km/h 68% 0.0 mm CLR
21:19 25.2 °C 19.1 °C 1013.7 hPa ENE 12.2 km/h 14.8 km/h 69% 0.0 mm CLR
21:24 25.1 °C 19.0 °C 1013.7 hPa East 12.2 km/h 24.1 km/h 69% 0.0 mm CLR
21:29 24.8 °C 18.9 °C 1013.7 hPa ENE 12.2 km/h 20.4 km/h 70% 0.0 mm CLR
21:34 24.7 °C 19.1 °C 1013.9 hPa ENE 12.2 km/h 22.2 km/h 71% 0.0 mm CLR
21:39 24.6 °C 19.0 °C 1013.9 hPa ENE 13.0 km/h 16.7 km/h 71% 0.0 mm CLR
21:44 24.6 °C 19.0 °C 1013.9 hPa NE 13.0 km/h 13.0 km/h 71% 0.0 mm CLR
21:49 24.5 °C 19.1 °C 1014.1 hPa East 10.0 km/h 16.7 km/h 72% 0.0 mm CLR
21:54 24.4 °C 19.0 °C 1014.1 hPa NE 10.0 km/h 13.0 km/h 72% 0.0 mm CLR
21:59 24.4 °C 19.0 °C 1014.1 hPa NE 8.7 km/h 14.8 km/h 72% 0.0 mm CLR
22:04 24.3 °C 18.9 °C 1014.5 hPa NE 8.7 km/h 13.0 km/h 72% 0.0 mm CLR
22:09 24.3 °C 19.2 °C 1014.5 hPa NE 7.6 km/h 11.1 km/h 73% 0.0 mm CLR
22:14 24.2 °C 19.1 °C 1014.5 hPa ENE 7.6 km/h 16.7 km/h 73% 0.0 mm CLR
22:19 24.1 °C 19.2 °C 1014.6 hPa NE 8.7 km/h 9.3 km/h 74% 0.0 mm CLR
22:24 24.1 °C 19.2 °C 1014.6 hPa NE 8.7 km/h 11.1 km/h 74% 0.0 mm CLR
22:29 24.0 °C 19.1 °C 1014.6 hPa NNE 7.6 km/h 11.1 km/h 74% 0.0 mm CLR
22:34 23.9 °C 19.0 °C 1015.0 hPa North 7.6 km/h 9.3 km/h 74% 0.0 mm CLR
22:39 23.9 °C 19.0 °C 1015.0 hPa North 8.7 km/h 9.5 km/h 74% 0.0 mm CLR
22:44 23.8 °C 19.1 °C 1015.0 hPa ENE 8.7 km/h 16.7 km/h 75% 0.0 mm CLR
22:49 23.8 °C 19.1 °C 1015.3 hPa NE 9.5 km/h 13.0 km/h 75% 0.0 mm CLR
22:54 23.7 °C 19.2 °C 1015.3 hPa NNE 9.5 km/h 11.1 km/h 76% 0.0 mm CLR
22:59 23.7 °C 19.2 °C 1015.3 hPa NE 7.6 km/h 11.1 km/h 76% 0.0 mm CLR
23:04 23.7 °C 19.2 °C 1015.4 hPa NNE 7.6 km/h 9.3 km/h 76% 0.0 mm CLR
23:09 23.7 °C 19.2 °C 1015.4 hPa NE 6.9 km/h 9.3 km/h 76% 0.0 mm CLR
23:14 23.6 °C 19.3 °C 1015.4 hPa NNE 6.9 km/h 9.3 km/h 77% 0.0 mm CLR
23:19 23.5 °C 19.2 °C 1015.5 hPa NE 6.4 km/h 11.1 km/h 77% 0.0 mm CLR
23:24 23.4 °C 19.3 °C 1015.5 hPa NNE 6.4 km/h 16.7 km/h 78% 0.0 mm CLR
23:29 23.4 °C 19.3 °C 1015.5 hPa NNW 9.5 km/h 11.1 km/h 78% 0.0 mm CLR
23:34 23.4 °C 19.6 °C 1015.3 hPa NNE 9.5 km/h 14.8 km/h 79% 0.0 mm CLR
23:39 23.3 °C 19.4 °C 1015.3 hPa NE 9.5 km/h 14.8 km/h 79% 0.0 mm CLR
23:44 23.3 °C 19.4 °C 1015.3 hPa NE 9.5 km/h 13.0 km/h 79% 0.0 mm CLR
23:49 23.3 °C 19.4 °C 1015.3 hPa NNE 9.5 km/h 14.8 km/h 79% 0.0 mm CLR
23:54 23.3 °C 19.4 °C 1015.3 hPa NNE 9.5 km/h 11.1 km/h 79% 0.0 mm CLR
23:59 23.3 °C 19.4 °C 1015.3 hPa NE 8.4 km/h 11.1 km/h 79% 0.0 mm CLR
Murcia-Puente Tocinos, España
Compliments of Weather Underground - 2.75 mb

La estación de MeteoMurcia.com, publica sus datos en los siguientes proyectos:

Weather Underground PWS IMURCIAP2 Meteoclimatic www.awekas.at

W3Counter
Web Analytics